When you browse on this site, cookies collect data to enhance your experience and personalize the content and advertising you see.
Visit our Privacy Policy to learn more. By continuing to use the site, you agree to this use of cookies and data.
  • In Spain
  • List of Countries
  • For 7 days
  • Water Temperature
  • Weather Map
  • Weather Widgets
  • user-avatar
    Login

    Hourly Weather Campobasso

    Today, 2 June, Tuesday

    Time Temperature Precipitation Wind Pressure Humidity
    00:00 +10°C° 0 mm 1 mps 699 mmHg 88%
    01:00 +8°C° 0 mm 2 mps 699 mmHg 88%
    02:00 +8°C° 0 mm 2 mps 698 mmHg 86%
    03:00 +9°C° 0 mm 1 mps 698 mmHg 84%
    04:00 +9°C° 0 mm 1 mps 698 mmHg 81%
    05:00 +11°C° 0 mm 1 mps 698 mmHg 76%
    06:00 +13°C° 0 mm 1 mps 699 mmHg 71%
    07:00 +15°C° 0 mm 1 mps 699 mmHg 65%
    08:00 +16°C° 0 mm 2 mps 699 mmHg 61%
    09:00 +18°C° 0 mm 3 mps 700 mmHg 56%
    10:00 +19°C° 0 mm 4 mps 700 mmHg 52%
    11:00 +19°C° 0 mm 4 mps 700 mmHg 51%
    12:00 +20°C° 0 mm 4 mps 700 mmHg 50%
    13:00 +20°C° 0 mm 4 mps 700 mmHg 49%
    14:00 +20°C° 0 mm 3 mps 699 mmHg 50%
    15:00 +20°C° 0 mm 3 mps 699 mmHg 51%
    16:00 +20°C° 0 mm 2 mps 698 mmHg 52%
    17:00 +18°C° 0.1 mm 2 mps 698 mmHg 57%
    18:00 +16°C° 0.1 mm 1 mps 697 mmHg 63%
    19:00 +14°C° 0.1 mm 0 mps 697 mmHg 69%
    20:00 +13°C° 0 mm 0 mps 697 mmHg 72%
    21:00 +13°C° 0 mm 1 mps 697 mmHg 74%
    22:00 +12°C° 0 mm 1 mps 697 mmHg 77%
    23:00 +12°C° 0 mm 1 mps 696 mmHg 78%

    Tomorrow, 3 June, Wednesday

    Time Temperature Precipitation Wind Pressure Humidity
    00:00 +11°C° 0 mm 1 mps 696 mmHg 80%
    01:00 +11°C° 0 mm 1 mps 696 mmHg 82%
    02:00 +11°C° 0 mm 1 mps 696 mmHg 82%
    03:00 +11°C° 0 mm 1 mps 696 mmHg 82%
    04:00 +11°C° 0 mm 1 mps 695 mmHg 82%
    05:00 +12°C° 0 mm 1 mps 696 mmHg 77%
    06:00 +14°C° 0 mm 1 mps 696 mmHg 73%
    07:00 +16°C° 0 mm 1 mps 696 mmHg 69%
    08:00 +19°C° 0 mm 1 mps 697 mmHg 63%
    09:00 +19°C° 0 mm 2 mps 697 mmHg 57%
    10:00 +21°C° 0 mm 2 mps 698 mmHg 50%
    11:00 +21°C° 0.1 mm 2 mps 698 mmHg 50%
    12:00 +22°C° 0.1 mm 3 mps 697 mmHg 50%
    13:00 +22°C° 0.1 mm 4 mps 697 mmHg 49%
    14:00 +22°C° 0.1 mm 4 mps 697 mmHg 52%
    15:00 +21°C° 0.1 mm 4 mps 697 mmHg 55%
    16:00 +21°C° 0.1 mm 4 mps 697 mmHg 58%
    17:00 +19°C° 0.3 mm 4 mps 696 mmHg 66%
    18:00 +18°C° 0.3 mm 3 mps 696 mmHg 73%
    19:00 +16°C° 0.3 mm 2 mps 695 mmHg 80%
    20:00 +15°C° 0 mm 2 mps 695 mmHg 83%
    21:00 +14°C° 0 mm 2 mps 695 mmHg 86%
    22:00 +12°C° 0 mm 2 mps 695 mmHg 89%
    23:00 +11°C° 0 mm 3 mps 695 mmHg 90%

    Day after tomorrow, 4 June, Thursday

    Time Temperature Precipitation Wind Pressure Humidity
    00:00 +11°C° 0 mm 3 mps 695 mmHg 91%
    01:00 +10°C° 0 mm 3 mps 694 mmHg 91%
    02:00 +10°C° 0 mm 3 mps 694 mmHg 92%
    03:00 +10°C° 0 mm 3 mps 694 mmHg 93%
    04:00 +10°C° 0 mm 3 mps 694 mmHg 94%
    05:00 +12°C° 0 mm 3 mps 694 mmHg 90%
    06:00 +13°C° 0 mm 3 mps 694 mmHg 87%
    07:00 +14°C° 0 mm 4 mps 695 mmHg 83%
    08:00 +17°C° 0 mm 4 mps 695 mmHg 76%
    09:00 +18°C° 0 mm 4 mps 695 mmHg 68%
    10:00 +20°C° 0 mm 5 mps 696 mmHg 61%
    11:00 +21°C° 0 mm 5 mps 695 mmHg 58%
    12:00 +21°C° 0 mm 6 mps 695 mmHg 55%
    13:00 +22°C° 0 mm 6 mps 695 mmHg 52%
    14:00 +21°C° 0 mm 6 mps 695 mmHg 53%
    15:00 +21°C° 0 mm 6 mps 694 mmHg 53%
    16:00 +21°C° 0 mm 6 mps 694 mmHg 53%
    17:00 +19°C° 0 mm 5 mps 693 mmHg 59%
    18:00 +18°C° 0 mm 4 mps 693 mmHg 64%
    19:00 +16°C° 0 mm 3 mps 692 mmHg 69%
    20:00 +16°C° 0 mm 3 mps 692 mmHg 66%
    21:00 +14°C° 0 mm 4 mps 692 mmHg 63%
    22:00 +14°C° 0 mm 4 mps 692 mmHg 60%
    23:00 +13°C° 0 mm 4 mps 692 mmHg 61%

    5 June, Friday

    Time Temperature Precipitation Wind Pressure Humidity
    00:00 +13°C° 0 mm 4 mps 692 mmHg 62%
    01:00 +13°C° 0 mm 4 mps 691 mmHg 63%
    02:00 +13°C° 0.4 mm 5 mps 691 mmHg 72%
    03:00 +14°C° 0.4 mm 5 mps 691 mmHg 81%
    04:00 +14°C° 0.4 mm 6 mps 691 mmHg 90%
    05:00 +14°C° 2.2 mm 6 mps 691 mmHg 91%
    06:00 +14°C° 2.2 mm 6 mps 691 mmHg 92%
    07:00 +15°C° 2.2 mm 5 mps 691 mmHg 93%
    08:00 +15°C° 4.2 mm 6 mps 691 mmHg 92%
    09:00 +15°C° 4.2 mm 6 mps 691 mmHg 90%
    10:00 +15°C° 4.2 mm 7 mps 691 mmHg 88%
    11:00 +15°C° 1.9 mm 6 mps 691 mmHg 84%
    12:00 +16°C° 1.9 mm 6 mps 691 mmHg 80%
    13:00 +16°C° 1.9 mm 5 mps 691 mmHg 75%
    14:00 +16°C° 0.1 mm 6 mps 691 mmHg 74%
    15:00 +16°C° 0.1 mm 6 mps 691 mmHg 73%
    16:00 +16°C° 0.1 mm 7 mps 691 mmHg 71%
    17:00 +15°C° 0 mm 6 mps 692 mmHg 76%
    18:00 +14°C° 0 mm 5 mps 692 mmHg 80%
    19:00 +13°C° 0 mm 4 mps 692 mmHg 84%
    20:00 +12°C° 0 mm 3 mps 692 mmHg 86%
    21:00 +11°C° 0 mm 3 mps 693 mmHg 88%
    22:00 +10°C° 0 mm 2 mps 693 mmHg 90%
    23:00 +10°C° 0 mm 2 mps 693 mmHg 90%

    6 June, Saturday

    Time Temperature Precipitation Wind Pressure Humidity
    00:00 +10°C° 0 mm 2 mps 694 mmHg 90%
    01:00 +10°C° 0 mm 2 mps 694 mmHg 90%
    02:00 +9°C° 0 mm 2 mps 694 mmHg 90%
    03:00 +9°C° 0 mm 2 mps 694 mmHg 90%
    04:00 +9°C° 0 mm 2 mps 694 mmHg 90%
    05:00 +12°C° 0 mm 2 mps 695 mmHg 86%
    06:00 +13°C° 0 mm 2 mps 696 mmHg 82%
    07:00 +15°C° 0 mm 1 mps 696 mmHg 79%
    08:00 +17°C° 0 mm 2 mps 697 mmHg 73%
    09:00 +18°C° 0 mm 2 mps 697 mmHg 68%
    10:00 +20°C° 0 mm 2 mps 698 mmHg 63%
    11:00 +20°C° 0 mm 3 mps 698 mmHg 62%
    12:00 +21°C° 0 mm 3 mps 698 mmHg 60%
    13:00 +22°C° 0 mm 3 mps 698 mmHg 59%
    14:00 +21°C° 0 mm 4 mps 698 mmHg 62%
    15:00 +20°C° 0 mm 4 mps 698 mmHg 65%
    16:00 +20°C° 0 mm 5 mps 698 mmHg 69%
    17:00 +19°C° 0 mm 4 mps 698 mmHg 74%
    18:00 +17°C° 0 mm 3 mps 698 mmHg 80%
    19:00 +16°C° 0 mm 3 mps 697 mmHg 86%
    20:00 +14°C° 0 mm 3 mps 698 mmHg 88%
    21:00 +13°C° 0 mm 3 mps 698 mmHg 91%
    22:00 +12°C° 0 mm 3 mps 698 mmHg 93%
    23:00 +13°C° 0 mm 2 mps 698 mmHg 94%

    7 June, Sunday

    Time Temperature Precipitation Wind Pressure Humidity
    00:00 +13°C° 0 mm 2 mps 698 mmHg 94%
    01:00 +13°C° 0 mm 2 mps 697 mmHg 95%
    02:00 +12°C° 0 mm 2 mps 697 mmHg 95%
    03:00 +12°C° 0 mm 2 mps 697 mmHg 95%
    04:00 +12°C° 0 mm 2 mps 697 mmHg 95%
    05:00 +13°C° 0 mm 2 mps 697 mmHg 91%
    06:00 +15°C° 0 mm 2 mps 698 mmHg 87%
    07:00 +16°C° 0 mm 2 mps 698 mmHg 83%
    08:00 +17°C° 0 mm 2 mps 699 mmHg 78%
    09:00 +19°C° 0 mm 2 mps 699 mmHg 73%
    10:00 +20°C° 0 mm 2 mps 699 mmHg 67%
    11:00 +21°C° 0 mm 3 mps 699 mmHg 65%
    12:00 +22°C° 0 mm 3 mps 699 mmHg 62%
    13:00 +24°C° 0 mm 3 mps 699 mmHg 59%
    14:00 +24°C° 0 mm 3 mps 699 mmHg 59%
    15:00 +24°C° 0 mm 3 mps 698 mmHg 60%
    16:00 +24°C° 0 mm 3 mps 698 mmHg 61%
    17:00 +21°C° 0 mm 3 mps 698 mmHg 67%
    18:00 +20°C° 0 mm 3 mps 698 mmHg 72%
    19:00 +18°C° 0 mm 2 mps 697 mmHg 78%
    20:00 +18°C° 0 mm 2 mps 697 mmHg 77%
    21:00 +17°C° 0 mm 2 mps 697 mmHg 76%
    22:00 +16°C° 0 mm 2 mps 697 mmHg 76%
    23:00 +16°C° 0 mm 2 mps 697 mmHg 75%
    Show more